Weather History for CWSP - March, 2013

Change the Weather History Date:

Tuesday, March 5, 2013

  Actual Average Record
Temperature  
Mean Temperature 44 °F -  
Max Temperature 46 °F - - ()
Min Temperature 41 °F - - ()
Degree Days  
Heating Degree Days 22    
Moisture  
Dew Point 34 °F    
Average Humidity 67    
Maximum Humidity 89    
Minimum Humidity 41    
Precipitation  
Precipitation 0.03 in - - ()
Sea Level Pressure  
Sea Level Pressure 29.81 in    
Wind  
Wind Speed 10 mph ()    
Max Wind Speed 39 mph    
Max Gust Speed -    
T = Trace of Precipitation, MM = Missing Value Source: Averaged Metar Reports

Daily Weather History Graph

Daily Weather History Graph

Search for Another Location

Airport or City:

Trip Planner

Search our weather history database for the weather conditions in past years. The results will help you decide how hot, cold, wet, or windy it might be!

Date:

Astronomy

Mar. 05, 2013 Rise Set
Actual Time 6:48 AM PST 6:06 PM PST
Civil Twilight 6:17 AM PST 6:37 PM PST
Nautical Twilight 5:41 AM PST 7:13 PM PST
Astronomical Twilight 5:04 AM PST 7:50 PM PST
Moon 2:27 AM PST (3/5) 11:30 AM PST (3/5)
Length of Visible Light 12h 20m
Length of Day
11h 18m
Last Quarter, 39% of the Moon is Illuminated
Mar 5
Last Quarter
Mar 11
New
Mar 19
First Quarter
Mar 27
Full
Apr 2
Last Quarter

Hourly Weather History & Observations

Time (PST) Temp. Windchill Dew Point Humidity Pressure Visibility Wind Dir Wind Speed Gust Speed Precip Events Conditions
12:00 AM 44.6 °F 39.7 °F 29.7 °F 56% 29.91 in - North 9.2 mph - N/A   Unknown
2:00 AM 44.6 °F 40.2 °F 29.1 °F 55% 29.89 in - North 8.1 mph - N/A   Unknown
3:00 AM 44.2 °F 39.2 °F 29.5 °F 56% 29.85 in - North 9.2 mph - N/A   Unknown
4:00 AM 45 °F - 29 °F 41% 29.83 in - Calm Calm - -  
5:00 AM 44.8 °F 39.4 °F 28.6 °F 53% 29.81 in - North 10.4 mph - N/A   Unknown
6:00 AM 44.8 °F 39.4 °F 28.9 °F 54% 29.81 in - North 10.4 mph - N/A   Unknown
7:00 AM 45.0 °F 39.7 °F 28.8 °F 53% 29.81 in - North 10.4 mph - N/A   Unknown
8:00 AM 45.3 °F 40.1 °F 28.6 °F 52% 29.81 in - North 10.4 mph - N/A   Unknown
9:00 AM 45.9 °F 41.7 °F 30.2 °F 54% 29.81 in - North 8.1 mph - N/A   Unknown
10:00 AM 46 °F - 31 °F 44% 29.83 in - Calm Calm - -  
10:00 AM 46.4 °F 41.1 °F 31.3 °F 56% 29.83 in - North 11.5 mph - N/A   Unknown
11:00 AM 45.7 °F 40.6 °F 33.4 °F 62% 29.82 in - North 10.4 mph - N/A   Unknown
12:00 PM 45.7 °F - 35.8 °F 68% 29.82 in - North 1.2 mph - N/A   Unknown
1:00 PM 46.4 °F 41.5 °F 35.1 °F 65% 29.81 in - North 10.4 mph - N/A   Unknown
2:00 PM 46.4 °F 42.9 °F 35.2 °F 65% 29.80 in - North 6.9 mph - N/A   Unknown
3:00 PM 45.1 °F 34.5 °F 38.1 °F 76% 29.80 in - North 36.8 mph - N/A   Unknown
4:00 PM 44 °F - 38 °F 73% 29.80 in - Calm Calm - -  
4:00 PM 43.5 °F 40.9 °F 38.1 °F 81% 29.80 in - North 4.6 mph - 0.02 in   Unknown
5:00 PM 42.4 °F 37.0 °F 37.9 °F 84% 29.80 in - North 9.2 mph - 0.02 in   Unknown
6:00 PM 41.9 °F 39.0 °F 37.8 °F 85% 29.79 in - North 4.6 mph - 0.02 in   Unknown
7:00 PM 41.9 °F 31.1 °F 38.3 °F 87% 29.79 in - North 29.9 mph - N/A   Unknown
8:00 PM 41.0 °F 28.5 °F 38.1 °F 89% 29.78 in - North 39.1 mph - N/A   Unknown
9:00 PM 41.4 °F 34.7 °F 38.1 °F 88% 29.78 in - North 11.5 mph - N/A   Unknown
10:00 PM 42 °F - 36 °F 74% 29.75 in - ENE 3.5 mph - -  
10:00 PM 41.9 °F 40.0 °F 36.5 °F 81% 29.75 in - ENE 3.5 mph - N/A   Unknown
11:00 PM 42.1 °F 38.4 °F 36.1 °F 79% 29.74 in - ENE 5.8 mph - N/A   Unknown